Location: Arbon
(43.0005°N, 0.7472°E)
Time: 11:27:07
(UTC+00:00)

Cosmos 1656 Rocket - Pass Details

Date: 22 April 2026
Orbit: 794 x 843 km, 71.1° (Epoch: 15 May)

Event Time Altitude Azimuth Distance (km) Brightness Sun altitude
Rises 19:24:41 0° 341° (NNW) 3,322 7.5 -7.2°
Reaches altitude 10° 19:27:14 10° 349° (NNW) 2,394 6.6 -7.6°
Maximum altitude 19:32:23 41° 58° (ENE) 1,176 4.2 -8.4°
Enters shadow 19:37:22 11° 127° (SE) 2,341 5.4 -9.2°
